| time (UTC) | temp F | wind direction | speed MPH | gust MPH | rain 1hr in | rain 24hr in | rain mn in | humidity % | barometer mb |
| 20260505121717 | 65 | 213 | 2.0 | 8.0 | 0.00 | 0.00 | 0.00 | 62 | 999.3 |
| 20260505121216 | 65 | 245 | 2.0 | 7.0 | 0.00 | 0.00 | 0.00 | 62 | 999.2 |
| 20260505120716 | 65 | 216 | 2.0 | 5.0 | 0.00 | 0.00 | 0.00 | 63 | 999.2 |
| 20260505120442 | 64 | 232 | 3.0 | 7.0 | 0.00 | 0.00 | 0.00 | 65 | 999.2 |
| 20260505115713 | 64 | 215 | 2.0 | 7.0 | 0.00 | 0.00 | 0.00 | 64 | 999.3 |
| 20260505115213 | 64 | 219 | 2.0 | 10.0 | 0.00 | 0.00 | 0.00 | 65 | 999.2 |
| 20260505114713 | 63 | 253 | 2.0 | 10.0 | 0.00 | 0.00 | 0.00 | 65 | 999.3 |
| 20260505114211 | 63 | 214 | 2.0 | 7.0 | 0.00 | 0.00 | 0.00 | 67 | 999.3 |
| 20260505113707 | 62 | 264 | 1.0 | 4.0 | 0.00 | 0.00 | 0.00 | 68 | 999.2 |
| 20260505113430 | 62 | 247 | 1.0 | 6.0 | 0.00 | 0.00 | 0.00 | 69 | 999.2 |
| 20260505112707 | 61 | 250 | 2.0 | 7.0 | 0.00 | 0.00 | 0.00 | 70 | 999.3 |
| 20260505112201 | 61 | 227 | 2.0 | 7.0 | 0.00 | 0.00 | 0.00 | 70 | 999.2 |
| 20260505111915 | 60 | 214 | 1.0 | 4.0 | 0.00 | 0.00 | 0.00 | 72 | 999.0 |
| 20260505111148 | 60 | 217 | 1.0 | 6.0 | 0.00 | 0.00 | 0.00 | 71 | 999.0 |
| 20260505110644 | 60 | 215 | 1.0 | 6.0 | 0.00 | 0.00 | 0.00 | 71 | 998.9 |
| 20260505110138 | 59 | 178 | 1.0 | 4.0 | 0.00 | 0.00 | 0.00 | 72 | 998.8 |
| 20260505102135 | 58 | 241 | 1.0 | 4.0 | 0.00 | 0.00 | 0.00 | 73 | 998.8 |
| 20260505101901 | 58 | 286 | 1.0 | 4.0 | 0.00 | 0.00 | 0.00 | 74 | 998.7 |
| 20260505101130 | 58 | 253 | 1.0 | 4.0 | 0.00 | 0.00 | 0.00 | 74 | 998.6 |
| 20260505100631 | 58 | 274 | 0.0 | 2.0 | 0.00 | 0.00 | 0.00 | 74 | 998.5 |
| 20260505100130 | 58 | 276 | 1.0 | 2.0 | 0.00 | 0.00 | 0.00 | 75 | 998.5 |
| 20260505095632 | 57 | 275 | 1.0 | 4.0 | 0.00 | 0.00 | 0.00 | 75 | 998.5 |
| 20260505095130 | 57 | 255 | 1.0 | 7.0 | 0.00 | 0.00 | 0.00 | 76 | 998.4 |
| 20260505094629 | 57 | 298 | 1.0 | 7.0 | 0.00 | 0.00 | 0.00 | 76 | 998.3 |
| 20260505094130 | 57 | 206 | 0.0 | 2.0 | 0.00 | 0.00 | 0.00 | 76 | 998.2 |
| 20260505093629 | 57 | 232 | 0.0 | 2.0 | 0.00 | 0.00 | 0.00 | 76 | 998.2 |
| 20260505093132 | 57 | 225 | 0.0 | 2.0 | 0.00 | 0.00 | 0.00 | 75 | 998.2 |
| 20260505092631 | 57 | 225 | 0.0 | 4.0 | 0.00 | 0.00 | 0.00 | 75 | 998.2 |
| 20260505092130 | 57 | 225 | 0.0 | 4.0 | 0.00 | 0.00 | 0.00 | 74 | 998.3 |
| 20260505091632 | 57 | 260 | 0.0 | 1.0 | 0.00 | 0.00 | 0.00 | 74 | 998.2 |
| 20260505091131 | 57 | 260 | 0.0 | 1.0 | 0.00 | 0.00 | 0.00 | 73 | 998.2 |
| 20260505090854 | 58 | 260 | 0.0 | 1.0 | 0.00 | 0.00 | 0.00 | 73 | 998.3 |
| 20260505090130 | 58 | 260 | 0.0 | 1.0 | 0.00 | 0.00 | 0.00 | 72 | 998.2 |
| 20260505085630 | 58 | 260 | 0.0 | 1.0 | 0.00 | 0.00 | 0.00 | 71 | 998.1 |
| 20260505085130 | 58 | 260 | 0.0 | 1.0 | 0.00 | 0.00 | 0.00 | 72 | 998.1 |
| 20260505084629 | 58 | 260 | 0.0 | 2.0 | 0.00 | 0.00 | 0.00 | 71 | 998.1 |
| 20260505084125 | 59 | 260 | 0.0 | 2.0 | 0.00 | 0.00 | 0.00 | 70 | 998.1 |
| 20260505083618 | 59 | 260 | 0.0 | 1.0 | 0.00 | 0.00 | 0.00 | 70 | 998.2 |
| 20260505083112 | 59 | 260 | 0.0 | 2.0 | 0.00 | 0.00 | 0.00 | 70 | 998.2 |
| 20260505082607 | 59 | 260 | 0.0 | 3.0 | 0.00 | 0.00 | 0.00 | 69 | 998.3 |
| 20260505082100 | 59 | 261 | 0.0 | 2.0 | 0.00 | 0.00 | 0.00 | 69 | 998.2 |
| 20260505081554 | 60 | 261 | 0.0 | 2.0 | 0.00 | 0.00 | 0.00 | 69 | 998.2 |
| 20260505081048 | 60 | 262 | 0.0 | 1.0 | 0.00 | 0.00 | 0.00 | 69 | 998.2 |
| 20260505080542 | 60 | 262 | 0.0 | 0.0 | 0.00 | 0.00 | 0.00 | 69 | 998.2 |
| 20260505080037 | 60 | 262 | 0.0 | 1.0 | 0.00 | 0.00 | 0.00 | 68 | 998.2 |
| 20260505075529 | 60 | 262 | 0.0 | 1.0 | 0.00 | 0.00 | 0.00 | 68 | 998.1 |
| 20260505075023 | 60 | 262 | 0.0 | 3.0 | 0.00 | 0.00 | 0.00 | 68 | 998.2 |
| 20260505074516 | 60 | 262 | 0.0 | 3.0 | 0.00 | 0.00 | 0.00 | 68 | 998.2 |
| 20260505074230 | 60 | 267 | 0.0 | 2.0 | 0.00 | 0.00 | 0.00 | 68 | 998.3 |
| 20260505073504 | 60 | 242 | 0.0 | 2.0 | 0.00 | 0.00 | 0.00 | 68 | 998.3 |
| 20260505072958 | 60 | 242 | 0.0 | 2.0 | 0.00 | 0.00 | 0.00 | 68 | 998.3 |
| 20260505072709 | 60 | 242 | 0.0 | 4.0 | 0.00 | 0.00 | 0.00 | 68 | 998.2 |
| 20260505071946 | 60 | 242 | 0.0 | 4.0 | 0.00 | 0.00 | 0.00 | 68 | 998.2 |
| 20260505071440 | 60 | 240 | 0.0 | 3.0 | 0.00 | 0.00 | 0.00 | 68 | 998.3 |
| 20260505070933 | 60 | 241 | 0.0 | 3.0 | 0.00 | 0.00 | 0.00 | 68 | 998.2 |
| 20260505070653 | 60 | 241 | 0.0 | 3.0 | 0.00 | 0.00 | 0.00 | 68 | 998.2 |
| 20260505065921 | 60 | 241 | 1.0 | 3.0 | 0.00 | 0.00 | 0.00 | 68 | 998.2 |
| 20260505065417 | 60 | 272 | 1.0 | 3.0 | 0.00 | 0.00 | 0.00 | 68 | 998.2 |
| 20260505064910 | 60 | 266 | 1.0 | 3.0 | 0.00 | 0.00 | 0.00 | 68 | 998.2 |
| 20260505064710 | 60 | 254 | 0.0 | 2.0 | 0.00 | 0.00 | 0.00 | 68 | 998.2 |
| 20260505063352 | 60 | 254 | 0.0 | 2.0 | 0.00 | 0.00 | 0.00 | 67 | 998.3 |
| 20260505062845 | 60 | 254 | 1.0 | 3.0 | 0.00 | 0.00 | 0.00 | 66 | 998.3 |
| 20260505062340 | 60 | 254 | 1.0 | 3.0 | 0.00 | 0.00 | 0.00 | 66 | 998.4 |
| 20260505061835 | 60 | 258 | 1.0 | 3.0 | 0.00 | 0.00 | 0.00 | 65 | 998.2 |
| 20260505061550 | 60 | 263 | 1.0 | 5.0 | 0.00 | 0.00 | 0.00 | 65 | 998.1 |
| 20260505061051 | 60 | 288 | 2.0 | 5.0 | 0.00 | 0.00 | 0.00 | 65 | 998.2 |
| 20260505060316 | 60 | 236 | 1.0 | 4.0 | 0.00 | 0.00 | 0.00 | 65 | 998.2 |
| 20260505055810 | 60 | 259 | 1.0 | 5.0 | 0.00 | 0.00 | 0.00 | 65 | 998.1 |
| 20260505055304 | 60 | 275 | 2.0 | 5.0 | 0.00 | 0.00 | 0.00 | 65 | 998.1 |
| 20260505054759 | 59 | 236 | 1.0 | 7.0 | 0.00 | 0.00 | 0.00 | 65 | 998.1 |
| 20260505054512 | 59 | 148 | 2.0 | 7.0 | 0.00 | 0.00 | 0.00 | 65 | 998.2 |
| 20260505053745 | 59 | 228 | 2.0 | 5.0 | 0.00 | 0.00 | 0.00 | 65 | 998.1 |
| 20260505053241 | 59 | 231 | 1.0 | 4.0 | 0.00 | 0.00 | 0.00 | 65 | 998.1 |
| 20260505052958 | 59 | 205 | 0.0 | 2.0 | 0.00 | 0.00 | 0.00 | 64 | 998.2 |
| 20260505052242 | 59 | 200 | 0.0 | 3.0 | 0.00 | 0.00 | 0.00 | 63 | 998.2 |
| 20260505052000 | 60 | 199 | 1.0 | 3.0 | 0.00 | 0.00 | 0.00 | 63 | 998.3 |
| 20260505051239 | 60 | 214 | 1.0 | 3.0 | 0.00 | 0.00 | 0.00 | 62 | 998.3 |
| 20260505050738 | 60 | 215 | 1.0 | 3.0 | 0.00 | 0.00 | 0.00 | 63 | 998.3 |
| 20260505050237 | 60 | 240 | 1.0 | 5.0 | 0.00 | 0.00 | 0.00 | 62 | 998.3 |
| 20260505041732 | 60 | 84 | 0.0 | 3.0 | 0.00 | 0.00 | 0.00 | 57 | 998.3 |
| 20260505041232 | 60 | 84 | 0.0 | 3.0 | 0.00 | 0.00 | 0.00 | 57 | 998.3 |
| 20260505040732 | 61 | 73 | 0.0 | 2.0 | 0.00 | 0.00 | 0.00 | 56 | 998.2 |
| 20260505040232 | 61 | 74 | 0.0 | 3.0 | 0.00 | 0.00 | 0.00 | 56 | 998.1 |
| 20260505035727 | 61 | 125 | 0.0 | 2.0 | 0.00 | 0.00 | 0.00 | 56 | 998.1 |
| 20260505035220 | 61 | 236 | 0.0 | 2.0 | 0.00 | 0.00 | 0.00 | 56 | 998.1 |
| 20260505034715 | 61 | 233 | 1.0 | 3.0 | 0.00 | 0.00 | 0.00 | 56 | 998.1 |
| 20260505034208 | 61 | 233 | 1.0 | 3.0 | 0.00 | 0.00 | 0.00 | 56 | 998.1 |
| 20260505033702 | 61 | 69 | 1.0 | 5.0 | 0.00 | 0.00 | 0.00 | 55 | 998.1 |
| 20260505033652 | 61 | 96 | 1.0 | 5.0 | 0.00 | 0.00 | 0.00 | 55 | 998.1 |
| 20260505032650 | 61 | 275 | 1.0 | 5.0 | 0.00 | 0.00 | 0.00 | 55 | 998.2 |
| 20260505032151 | 61 | 237 | 2.0 | 5.0 | 0.00 | 0.00 | 0.00 | 55 | 998.2 |
| 20260505031648 | 60 | 225 | 1.0 | 5.0 | 0.00 | 0.00 | 0.00 | 56 | 998.2 |
| 20260505031145 | 60 | 257 | 1.0 | 3.0 | 0.00 | 0.00 | 0.00 | 56 | 998.2 |
| 20260505030644 | 60 | 188 | 1.0 | 3.0 | 0.00 | 0.00 | 0.00 | 57 | 998.2 |
| 20260505030144 | 60 | 195 | 1.0 | 3.0 | 0.00 | 0.00 | 0.00 | 57 | 998.2 |
| 20260505025644 | 60 | 182 | 0.0 | 3.0 | 0.00 | 0.00 | 0.00 | 57 | 998.1 |
| 20260505025410 | 60 | 112 | 0.0 | 2.0 | 0.00 | 0.00 | 0.00 | 57 | 998.2 |
| 20260505024640 | 60 | 105 | 0.0 | 2.0 | 0.00 | 0.00 | 0.00 | 57 | 998.3 |
| 20260505024137 | 60 | 105 | 0.0 | 2.0 | 0.00 | 0.00 | 0.00 | 57 | 998.3 |
| 20260505023639 | 60 | 34 | 0.0 | 2.0 | 0.00 | 0.00 | 0.00 | 57 | 998.4 |
| 20260505023139 | 60 | 28 | 1.0 | 3.0 | 0.00 | 0.00 | 0.00 | 57 | 998.4 |
| 20260505022635 | 60 | 5 | 1.0 | 3.0 | 0.00 | 0.00 | 0.00 | 57 | 998.4 |
| 20260505022136 | 60 | 0 | 0.0 | 3.0 | 0.00 | 0.00 | 0.00 | 57 | 998.4 |
| 20260505022131 | 61 | 72 | 0.0 | 1.0 | 0.00 | 0.00 | 0.00 | 56 | 998.5 |
| 20260505021135 | 61 | 72 | 0.0 | 0.0 | 0.00 | 0.00 | 0.00 | 56 | 998.5 |
| 20260505020631 | 61 | 72 | 0.0 | 2.0 | 0.00 | 0.00 | 0.00 | 55 | 998.4 |
| 20260505020130 | 61 | 72 | 0.0 | 2.0 | 0.00 | 0.00 | 0.00 | 55 | 998.4 |
| 20260505015631 | 61 | 72 | 0.0 | 0.0 | 0.00 | 0.00 | 0.00 | 55 | 998.4 |
| 20260505015131 | 61 | 72 | 0.0 | 2.0 | 0.00 | 0.00 | 0.00 | 54 | 998.3 |
| 20260505014625 | 61 | 72 | 0.0 | 2.0 | 0.00 | 0.00 | 0.00 | 53 | 998.3 |
| 20260505014339 | 61 | 301 | 0.0 | 4.0 | 0.00 | 0.00 | 0.00 | 54 | 998.4 |
| 20260505013837 | 61 | 301 | 0.0 | 4.0 | 0.00 | 0.00 | 0.00 | 55 | 998.4 |
| 20260505013106 | 61 | 258 | 0.0 | 3.0 | 0.00 | 0.00 | 0.00 | 54 | 998.3 |
| 20260505012601 | 61 | 257 | 0.0 | 3.0 | 0.00 | 0.00 | 0.00 | 54 | 998.3 |
| 20260505012055 | 61 | 180 | 0.0 | 3.0 | 0.00 | 0.00 | 0.00 | 55 | 998.3 |
| 20260505011548 | 61 | 186 | 0.0 | 2.0 | 0.00 | 0.00 | 0.00 | 55 | 998.3 |
| 20260505011132 | 62 | 186 | 0.0 | 2.0 | 0.00 | 0.00 | 0.00 | 54 | 998.2 |
| 20260505010029 | 63 | 186 | 0.0 | 0.0 | 0.00 | 0.00 | 0.00 | 52 | 998.0 |
| 20260505005524 | 63 | 186 | 0.0 | 0.0 | 0.00 | 0.00 | 0.00 | 50 | 997.9 |
| 20260505005017 | 64 | 186 | 0.0 | 0.0 | 0.00 | 0.00 | 0.00 | 49 | 997.9 |
| 20260505004512 | 64 | 186 | 0.0 | 0.0 | 0.00 | 0.00 | 0.00 | 48 | 997.9 |
| 20260505004448 | 65 | 186 | 0.0 | 0.0 | 0.00 | 0.00 | 0.00 | 47 | 997.8 |
| 20260505003948 | 65 | 186 | 0.0 | 0.0 | 0.00 | 0.00 | 0.00 | 47 | 997.8 |
| 20260505002953 | 65 | 186 | 0.0 | 0.0 | 0.00 | 0.00 | 0.00 | 46 | 997.7 |
| 20260505002448 | 66 | 186 | 0.0 | 0.0 | 0.00 | 0.00 | 0.00 | 45 | 997.7 |
| 20260505002249 | 66 | 186 | 0.0 | 1.0 | 0.00 | 0.00 | 0.00 | 44 | 997.7 |
| 20260505000930 | 67 | 186 | 0.0 | 1.0 | 0.00 | 0.00 | 0.00 | 44 | 997.6 |
| 20260505000424 | 67 | 186 | 0.0 | 2.0 | 0.00 | 0.00 | 0.00 | 44 | 997.5 |
| 20260504235918 | 67 | 186 | 0.0 | 3.0 | 0.00 | 0.00 | 0.00 | 43 | 997.5 |
| 20260504235412 | 67 | 187 | 1.0 | 3.0 | 0.00 | 0.00 | 0.00 | 43 | 997.5 |
| 20260504234905 | 68 | 187 | 1.0 | 2.0 | 0.00 | 0.00 | 0.00 | 43 | 997.5 |
| 20260504234359 | 68 | 184 | 1.0 | 3.0 | 0.00 | 0.00 | 0.00 | 43 | 997.5 |
| 20260504234116 | 68 | 223 | 2.0 | 7.0 | 0.00 | 0.00 | 0.00 | 42 | 997.5 |
| 20260504233348 | 68 | 209 | 2.0 | 7.0 | 0.00 | 0.00 | 0.00 | 42 | 997.5 |
| 20260504232842 | 68 | 217 | 1.0 | 5.0 | 0.00 | 0.00 | 0.00 | 42 | 997.4 |
| 20260504232336 | 69 | 244 | 1.0 | 7.0 | 0.00 | 0.00 | 0.00 | 41 | 997.4 |
| 20260504232049 | 69 | 232 | 2.0 | 7.0 | 0.00 | 0.00 | 0.00 | 42 | 997.4 |
| 20260504231326 | 69 | 199 | 2.0 | 8.0 | 0.00 | 0.00 | 0.00 | 40 | 997.4 |
| 20260504230818 | 69 | 232 | 2.0 | 8.0 | 0.00 | 0.00 | 0.00 | 41 | 997.4 |
| 20260504230314 | 69 | 229 | 2.0 | 7.0 | 0.00 | 0.00 | 0.00 | 40 | 997.5 |
| 20260504230034 | 70 | 254 | 2.0 | 6.0 | 0.00 | 0.00 | 0.00 | 41 | 997.4 |
| 20260504225259 | 70 | 201 | 3.0 | 6.0 | 0.00 | 0.00 | 0.00 | 39 | 997.4 |
| 20260504225018 | 70 | 226 | 2.0 | 7.0 | 0.00 | 0.00 | 0.00 | 39 | 997.3 |
| 20260504224252 | 70 | 201 | 1.0 | 7.0 | 0.00 | 0.00 | 0.00 | 39 | 997.3 |
| 20260504223752 | 70 | 217 | 2.0 | 6.0 | 0.00 | 0.00 | 0.00 | 38 | 997.3 |
| 20260504223518 | 71 | 32 | 2.0 | 9.0 | 0.00 | 0.00 | 0.00 | 39 | 997.5 |
| 20260504222751 | 71 | 253 | 3.0 | 9.0 | 0.00 | 0.00 | 0.00 | 38 | 997.5 |
| 20260504222248 | 71 | 340 | 3.0 | 9.0 | 0.00 | 0.00 | 0.00 | 38 | 997.5 |
| 20260504221747 | 71 | 216 | 3.0 | 7.0 | 0.00 | 0.00 | 0.00 | 37 | 997.5 |
| 20260504221246 | 71 | 229 | 3.0 | 7.0 | 0.00 | 0.00 | 0.00 | 38 | 997.5 |
| 20260504220745 | 71 | 189 | 3.0 | 14.0 | 0.00 | 0.00 | 0.00 | 37 | 997.6 |
| 20260504220247 | 72 | 232 | 3.0 | 14.0 | 0.00 | 0.00 | 0.00 | 38 | 997.5 |
| 20260504220002 | 72 | 316 | 2.0 | 9.0 | 0.00 | 0.00 | 0.00 | 39 | 997.5 |
| 20260504215242 | 72 | 245 | 3.0 | 13.0 | 0.00 | 0.00 | 0.00 | 38 | 997.6 |
| 20260504214743 | 72 | 279 | 4.0 | 13.0 | 0.00 | 0.00 | 0.00 | 37 | 997.6 |
| 20260504214240 | 73 | 224 | 3.0 | 9.0 | 0.00 | 0.00 | 0.00 | 38 | 997.6 |
| 20260504213742 | 73 | 92 | 3.0 | 9.0 | 0.00 | 0.00 | 0.00 | 38 | 997.7 |
| 20260504213238 | 73 | 188 | 3.0 | 9.0 | 0.00 | 0.00 | 0.00 | 37 | 997.6 |
| 20260504212739 | 73 | 219 | 4.0 | 10.0 | 0.00 | 0.00 | 0.00 | 37 | 997.7 |
| 20260504212458 | 73 | 188 | 4.0 | 12.0 | 0.00 | 0.00 | 0.00 | 37 | 997.7 |
| 20260504212000 | 73 | 205 | 4.0 | 12.0 | 0.00 | 0.00 | 0.00 | 36 | 997.7 |
| 20260504211230 | 73 | 225 | 4.0 | 11.0 | 0.00 | 0.00 | 0.00 | 36 | 997.6 |
| 20260504210731 | 73 | 269 | 4.0 | 11.0 | 0.00 | 0.00 | 0.00 | 36 | 997.7 |
| 20260504210231 | 73 | 290 | 5.0 | 11.0 | 0.00 | 0.00 | 0.00 | 38 | 997.7 |
| 20260504205731 | 74 | 219 | 5.0 | 11.0 | 0.00 | 0.00 | 0.00 | 36 | 997.7 |
| 20260504205231 | 74 | 111 | 5.0 | 15.0 | 0.00 | 0.00 | 0.00 | 35 | 997.6 |
| 20260504204733 | 74 | 197 | 4.0 | 15.0 | 0.00 | 0.00 | 0.00 | 37 | 997.6 |
| 20260504204233 | 74 | 279 | 4.0 | 15.0 | 0.00 | 0.00 | 0.00 | 37 | 997.7 |
| 20260504203731 | 74 | 229 | 4.0 | 15.0 | 0.00 | 0.00 | 0.00 | 39 | 997.7 |
| 20260504203233 | 74 | 217 | 3.0 | 10.0 | 0.00 | 0.00 | 0.00 | 37 | 997.7 |
| 20260504202727 | 74 | 219 | 3.0 | 10.0 | 0.00 | 0.00 | 0.00 | 37 | 997.6 |
| 20260504202228 | 74 | 211 | 3.0 | 10.0 | 0.00 | 0.00 | 0.00 | 39 | 997.8 |
| 20260504201727 | 74 | 213 | 5.0 | 12.0 | 0.00 | 0.00 | 0.00 | 38 | 997.9 |
| 20260504201453 | 74 | 232 | 5.0 | 12.0 | 0.00 | 0.00 | 0.00 | 35 | 997.8 |
| 20260504200729 | 74 | 200 | 4.0 | 12.0 | 0.00 | 0.00 | 0.00 | 36 | 997.8 |
| 20260504200451 | 74 | 225 | 5.0 | 13.0 | 0.00 | 0.00 | 0.00 | 36 | 997.9 |
| 20260504195728 | 74 | 227 | 5.0 | 13.0 | 0.00 | 0.00 | 0.00 | 36 | 998.0 |
| 20260504195229 | 74 | 233 | 4.0 | 11.0 | 0.00 | 0.00 | 0.00 | 38 | 998.0 |
| 20260504194728 | 74 | 202 | 4.0 | 9.0 | 0.00 | 0.00 | 0.00 | 37 | 998.0 |
| 20260504194449 | 74 | 162 | 4.0 | 11.0 | 0.00 | 0.00 | 0.00 | 35 | 998.0 |
| 20260504193728 | 75 | 219 | 4.0 | 11.0 | 0.00 | 0.00 | 0.00 | 34 | 998.0 |
| 20260504193227 | 74 | 214 | 3.0 | 9.0 | 0.00 | 0.00 | 0.00 | 37 | 998.1 |
| 20260504192727 | 74 | 121 | 4.0 | 11.0 | 0.00 | 0.00 | 0.00 | 36 | 998.1 |
| 20260504192452 | 74 | 272 | 4.0 | 11.0 | 0.00 | 0.00 | 0.00 | 37 | 998.1 |
| 20260504191953 | 74 | 246 | 3.0 | 8.0 | 0.00 | 0.00 | 0.00 | 36 | 998.3 |
| 20260504191227 | 74 | 217 | 3.0 | 10.0 | 0.00 | 0.00 | 0.00 | 39 | 998.3 |
| 20260504190953 | 74 | 211 | 3.0 | 10.0 | 0.00 | 0.00 | 0.00 | 39 | 998.4 |
| 20260504190226 | 73 | 189 | 4.0 | 11.0 | 0.00 | 0.00 | 0.00 | 39 | 998.5 |
| 20260504185727 | 73 | 241 | 5.0 | 11.0 | 0.00 | 0.00 | 0.00 | 37 | 998.6 |
| 20260504185440 | 73 | 200 | 5.0 | 11.0 | 0.00 | 0.00 | 0.00 | 37 | 998.7 |
| 20260504184715 | 73 | 177 | 4.0 | 11.0 | 0.00 | 0.00 | 0.00 | 38 | 998.7 |
| 20260504184432 | 73 | 229 | 4.0 | 15.0 | 0.00 | 0.00 | 0.00 | 36 | 998.8 |
| 20260504183704 | 73 | 227 | 4.0 | 15.0 | 0.00 | 0.00 | 0.00 | 36 | 998.9 |
| 20260504183157 | 73 | 260 | 5.0 | 14.0 | 0.00 | 0.00 | 0.00 | 36 | 998.9 |
| 20260504183134 | 73 | 215 | 5.0 | 14.0 | 0.00 | 0.00 | 0.00 | 35 | 999.0 |
| 20260504182145 | 73 | 261 | 4.0 | 13.0 | 0.00 | 0.00 | 0.00 | 36 | 999.0 |
| 20260504181640 | 73 | 227 | 5.0 | 10.0 | 0.00 | 0.00 | 0.00 | 36 | 999.1 |
| 20260504181132 | 72 | 195 | 5.0 | 13.0 | 0.00 | 0.00 | 0.00 | 35 | 999.1 |
| 20260504180634 | 72 | 240 | 5.0 | 13.0 | 0.00 | 0.00 | 0.00 | 35 | 999.3 |
| 20260504180132 | 72 | 191 | 4.0 | 10.0 | 0.00 | 0.00 | 0.00 | 36 | 999.2 |
| 20260504175632 | 72 | 202 | 4.0 | 10.0 | 0.00 | 0.00 | 0.00 | 36 | 999.3 |
| 20260504175131 | 72 | 242 | 5.0 | 12.0 | 0.00 | 0.00 | 0.00 | 37 | 999.5 |
| 20260504174630 | 72 | 299 | 5.0 | 12.0 | 0.00 | 0.00 | 0.00 | 36 | 999.6 |
| 20260504174130 | 72 | 188 | 5.0 | 10.0 | 0.00 | 0.00 | 0.00 | 37 | 999.6 |
| 20260504173628 | 72 | 248 | 4.0 | 14.0 | 0.00 | 0.00 | 0.00 | 36 | 999.6 |
| 20260504173126 | 72 | 261 | 3.0 | 14.0 | 0.00 | 0.00 | 0.00 | 37 | 999.7 |
| 20260504172627 | 72 | 242 | 2.0 | 9.0 | 0.00 | 0.00 | 0.00 | 36 | 999.7 |
| 20260504172127 | 72 | 226 | 3.0 | 15.0 | 0.00 | 0.00 | 0.00 | 39 | 999.8 |
| 20260504171626 | 71 | 207 | 4.0 | 15.0 | 0.00 | 0.00 | 0.00 | 40 | 999.9 |
| 20260504171122 | 71 | 236 | 4.0 | 14.0 | 0.00 | 0.00 | 0.00 | 39 | 1000.0 |
| 20260504170623 | 71 | 244 | 4.0 | 12.0 | 0.00 | 0.00 | 0.00 | 38 | 1000.0 |
| 20260504170343 | 70 | 222 | 5.0 | 14.0 | 0.00 | 0.00 | 0.00 | 40 | 1000.1 |
| 20260504151149 | 67 | 251 | 5.0 | 13.0 | 0.00 | 0.00 | 0.00 | 42 | 1001.4 |
| 20260504150423 | 67 | 314 | 5.0 | 12.0 | 0.00 | 0.00 | 0.00 | 42 | 1001.5 |
| 20260504141323 | 64 | 200 | 3.0 | 9.0 | 0.00 | 0.00 | 0.00 | 54 | 1001.6 |
| 20260504140817 | 64 | 190 | 2.0 | 5.0 | 0.00 | 0.00 | 0.00 | 56 | 1001.6 |
| 20260504140313 | 64 | 111 | 2.0 | 7.0 | 0.00 | 0.00 | 0.00 | 55 | 1001.6 |
| 20260504130706 | 59 | 210 | 2.0 | 6.0 | 0.00 | 0.00 | 0.00 | 65 | 1002.1 |
| 20260504130158 | 59 | 239 | 2.0 | 5.0 | 0.00 | 0.00 | 0.00 | 66 | 1002.0 |